Tiempo cada hora Abong Mbang

Hoy, 26 Octubre, Lunes

Tiempo Temperatura Precipitaciones Viento Presión Humedad
00:00 +20°C° 1.2 mm 0 mps 700 mmHg 98%
01:00 +20°C° 1.2 mm 0 mps 700 mmHg 99%
02:00 +20°C° 0.8 mm 0 mps 700 mmHg 99%
03:00 +20°C° 0.8 mm 0 mps 699 mmHg 99%
04:00 +20°C° 0.8 mm 0 mps 699 mmHg 99%
05:00 +20°C° 0.3 mm 0 mps 700 mmHg 99%
06:00 +22°C° 0.3 mm 1 mps 700 mmHg 99%
07:00 +22°C° 0.3 mm 1 mps 701 mmHg 99%
08:00 +24°C° 0.2 mm 1 mps 701 mmHg 93%
09:00 +25°C° 0.2 mm 1 mps 701 mmHg 87%
10:00 +27°C° 0.2 mm 1 mps 701 mmHg 81%
11:00 +27°C° 1.4 mm 1 mps 700 mmHg 81%
12:00 +28°C° 1.4 mm 1 mps 700 mmHg 81%
13:00 +27°C° 1.4 mm 0 mps 699 mmHg 81%
14:00 +26°C° 1.9 mm 0 mps 698 mmHg 85%
15:00 +25°C° 1.9 mm 0 mps 698 mmHg 89%
16:00 +24°C° 1.9 mm 0 mps 697 mmHg 93%
17:00 +23°C° 0.3 mm 0 mps 698 mmHg 94%
18:00 +22°C° 0.3 mm 0 mps 698 mmHg 94%
19:00 +21°C° 0.3 mm 0 mps 698 mmHg 95%
20:00 +21°C° 0.1 mm 0 mps 699 mmHg 95%
21:00 +21°C° 0.1 mm 0 mps 699 mmHg 95%
22:00 +21°C° 0.1 mm 0 mps 700 mmHg 95%
23:00 +21°C° 0 mm 0 mps 699 mmHg 94%

Mañana, 27 Octubre, Martes

Tiempo Temperatura Precipitaciones Viento Presión Humedad
00:00 +20°C° 0 mm 0 mps 699 mmHg 94%
01:00 +20°C° 0 mm 0 mps 699 mmHg 93%
02:00 +20°C° 0.1 mm 0 mps 699 mmHg 94%
03:00 +20°C° 0.1 mm 0 mps 699 mmHg 95%
04:00 +20°C° 0.1 mm 0 mps 699 mmHg 96%
05:00 +20°C° 0.1 mm 0 mps 699 mmHg 97%
06:00 +20°C° 0.1 mm 0 mps 700 mmHg 97%
07:00 +20°C° 0.1 mm 0 mps 700 mmHg 97%
08:00 +21°C° 0.5 mm 0 mps 701 mmHg 93%
09:00 +23°C° 0.5 mm 0 mps 701 mmHg 90%
10:00 +24°C° 0.5 mm 0 mps 701 mmHg 87%
11:00 +25°C° 0.8 mm 0 mps 701 mmHg 83%
12:00 +28°C° 0.8 mm 1 mps 700 mmHg 79%
13:00 +28°C° 0.8 mm 1 mps 699 mmHg 75%
14:00 +28°C° 1 mm 1 mps 699 mmHg 80%
15:00 +25°C° 1 mm 0 mps 698 mmHg 86%
16:00 +24°C° 1 mm 0 mps 698 mmHg 91%
17:00 +25°C° 0.3 mm 1 mps 698 mmHg 93%
18:00 +24°C° 0.3 mm 1 mps 699 mmHg 95%
19:00 +23°C° 0.3 mm 1 mps 699 mmHg 98%
20:00 +22°C° 0 mm 1 mps 699 mmHg 98%
21:00 +22°C° 0 mm 1 mps 700 mmHg 98%
22:00 +22°C° 0 mm 1 mps 700 mmHg 99%
23:00 +20°C° 0 mm 0 mps 700 mmHg 99%

Pasado mañana, 28 Octubre, Miércoles

Tiempo Temperatura Precipitaciones Viento Presión Humedad
00:00 +20°C° 0 mm 0 mps 700 mmHg 99%
01:00 +20°C° 0 mm 0 mps 699 mmHg 98%
02:00 +20°C° 0.4 mm 0 mps 699 mmHg 99%
03:00 +20°C° 0.4 mm 0 mps 699 mmHg 99%
04:00 +22°C° 0.4 mm 1 mps 699 mmHg 99%
05:00 +22°C° 0.6 mm 1 mps 699 mmHg 99%
06:00 +22°C° 0.6 mm 1 mps 700 mmHg 98%
07:00 +22°C° 0.6 mm 1 mps 700 mmHg 98%
08:00 +23°C° 0.8 mm 1 mps 701 mmHg 96%
09:00 +25°C° 0.8 mm 1 mps 701 mmHg 94%
10:00 +26°C° 0.8 mm 1 mps 701 mmHg 92%
11:00 +26°C° 2 mm 1 mps 700 mmHg 90%
12:00 +27°C° 2 mm 1 mps 700 mmHg 89%
13:00 +27°C° 2 mm 1 mps 699 mmHg 88%
14:00 +25°C° 1.4 mm 0 mps 699 mmHg 88%
15:00 +25°C° 1.4 mm 0 mps 698 mmHg 89%
16:00 +25°C° 1.4 mm 0 mps 698 mmHg 90%
17:00 +23°C° 0.6 mm 0 mps 699 mmHg 92%
18:00 +22°C° 0.6 mm 0 mps 699 mmHg 93%
19:00 +23°C° 0.6 mm 1 mps 700 mmHg 95%
20:00 +23°C° 0.5 mm 1 mps 700 mmHg 96%
21:00 +23°C° 0.5 mm 1 mps 701 mmHg 97%
22:00 +22°C° 0.5 mm 1 mps 701 mmHg 97%
23:00 +22°C° 1.3 mm 1 mps 701 mmHg 98%

29 Octubre, Jueves

Tiempo Temperatura Precipitaciones Viento Presión Humedad
00:00 +20°C° 1.3 mm 0 mps 701 mmHg 98%
01:00 +20°C° 1.3 mm 0 mps 701 mmHg 99%
02:00 +20°C° 1.4 mm 0 mps 700 mmHg 98%
03:00 +22°C° 1.4 mm 1 mps 700 mmHg 98%
04:00 +22°C° 1.4 mm 1 mps 700 mmHg 98%
05:00 +22°C° 0 mm 1 mps 700 mmHg 98%
06:00 +22°C° 0 mm 1 mps 701 mmHg 98%
07:00 +22°C° 0 mm 1 mps 701 mmHg 98%
08:00 +22°C° 0 mm 1 mps 701 mmHg 94%
09:00 +21°C° 0 mm 0 mps 702 mmHg 91%
10:00 +22°C° 0 mm 0 mps 702 mmHg 87%
11:00 +24°C° 0.1 mm 0 mps 702 mmHg 78%
12:00 +28°C° 0.1 mm 1 mps 701 mmHg 69%
13:00 +30°C° 0.1 mm 1 mps 701 mmHg 60%
14:00 +29°C° 0.6 mm 1 mps 700 mmHg 68%
15:00 +28°C° 0.6 mm 1 mps 700 mmHg 77%
16:00 +27°C° 0.6 mm 1 mps 699 mmHg 85%
17:00 +26°C° 0.1 mm 1 mps 699 mmHg 88%
18:00 +24°C° 0.1 mm 1 mps 699 mmHg 91%
19:00 +21°C° 0.1 mm 0 mps 700 mmHg 93%
20:00 +21°C° 0 mm 0 mps 700 mmHg 93%
21:00 +21°C° 0 mm 0 mps 701 mmHg 93%
22:00 +20°C° 0 mm 0 mps 701 mmHg 93%
23:00 +20°C° 0 mm 0 mps 701 mmHg 93%

30 Octubre, Viernes

Tiempo Temperatura Precipitaciones Viento Presión Humedad
00:00 +20°C° 0 mm 0 mps 701 mmHg 93%
01:00 +20°C° 0 mm 0 mps 701 mmHg 93%
02:00 +20°C° 0 mm 0 mps 700 mmHg 93%
03:00 +20°C° 0 mm 0 mps 700 mmHg 94%
04:00 +20°C° 0 mm 0 mps 700 mmHg 95%
05:00 +20°C° 0 mm 0 mps 700 mmHg 94%
06:00 +20°C° 0 mm 0 mps 701 mmHg 93%
07:00 +20°C° 0 mm 0 mps 701 mmHg 93%
08:00 +22°C° 0 mm 0 mps 702 mmHg 85%
09:00 +24°C° 0 mm 0 mps 702 mmHg 78%
10:00 +25°C° 0 mm 0 mps 702 mmHg 70%
11:00 +26°C° 0 mm 0 mps 701 mmHg 69%
12:00 +26°C° 0 mm 0 mps 701 mmHg 68%
13:00 +28°C° 0 mm 1 mps 700 mmHg 67%
14:00 +29°C° 0 mm 1 mps 699 mmHg 62%
15:00 +30°C° 0 mm 1 mps 699 mmHg 58%
16:00 +31°C° 0 mm 1 mps 699 mmHg 53%
17:00 +28°C° 0.4 mm 1 mps 699 mmHg 66%
18:00 +26°C° 0.4 mm 1 mps 699 mmHg 79%
19:00 +21°C° 0.4 mm 0 mps 699 mmHg 91%
20:00 +21°C° 0 mm 0 mps 700 mmHg 92%
21:00 +20°C° 0 mm 0 mps 700 mmHg 93%
22:00 +20°C° 0 mm 0 mps 700 mmHg 94%
23:00 +20°C° 0 mm 0 mps 700 mmHg 94%

31 Octubre, Sábado

Tiempo Temperatura Precipitaciones Viento Presión Humedad
00:00 +19°C° 0 mm 0 mps 700 mmHg 95%
01:00 +19°C° 0 mm 0 mps 700 mmHg 95%
02:00 +19°C° 0.1 mm 0 mps 700 mmHg 95%
03:00 +19°C° 0.1 mm 0 mps 699 mmHg 96%
04:00 +19°C° 0.1 mm 0 mps 699 mmHg 96%
05:00 +19°C° 0 mm 0 mps 700 mmHg 95%
06:00 +19°C° 0 mm 0 mps 700 mmHg 94%
07:00 +20°C° 0 mm 0 mps 701 mmHg 93%
Mostrar más

Necesitamos Su Consentimiento

Meteoprog y nuestros Proveedores de Servicios pueden almacenar y acceder a sus datos personales como cookies, identificadores de dispositivo u otras tecnologías similares de su dispositivo y procesar dichos datos para personalizar contenido y anuncios, además de ofrecer funciones de redes sociales y analizar el tráfico.

  • Almacenar y/o acceder a información en su dispositivo

    Se puede almacenar o acceder a cookies, identificadores de dispositivo u otra información de su dispositivo para los fines anteriormente indicados.

  • Anuncios y contenido personalizados, medición de anuncios y contenido, percepciones del público, y desarrollo de productos

    Los anuncios y el contenido pueden personalizarse en base a su perfil. Se pueden añadir más datos para personalizar mejor los anuncios y contenidos. Se puede medir el rendimiento de los anuncios y contenidos. Se puede obtener la percepción sobre el público que ha visto los anuncios y contenidos. Dichos datos pueden usarse para desarrollar o mejorar la experiencia del usuario, sistemas y software.

Al hacer clic en ‘Estoy De Acuerdo’ usted permitirá el uso de las cookies, identificadores de dispositivo, balizas web u otras tecnologías similares indicadas. Su configuración puede cambiarse desde el navegador de su dispositivo.

Para ciertos fines, los intereses legítimos pueden ser considerados por encima del consentimiento. Puede leer más sobre ello en nuestra Política de Privacidad y Cookies.